DW8151 Weather Reports


Display with metric or nautical units.
time (UTC)temp
F
wind
direction
speed
MPH
gust
MPH
rain 1hr
in
rain 24hr
in
rain mn
in
humidity
%
barometer
mb
20260505153141 56 212 3.0 0.0 0.00 0.00 0.00 79 1012.9
20260505150123 55 200 3.0 0.0 0.00 0.00 0.00 80 1012.6
20260505140122 55 225 3.0 0.0 0.00 0.00 0.00 80 1012.1
20260505130134 55 228 4.0 0.0 0.00 0.00 0.00 80 1011.9
20260505123152 55 167 2.0 0.0 0.00 0.00 0.00 79 1011.9
20260505120115 55 192 3.0 0.0 0.00 0.00 0.00 79 1011.6
20260505113126 55 189 3.0 0.0 0.00 0.00 0.00 78 1011.6
20260505110116 55 221 2.0 0.0 0.00 0.00 0.00 78 1011.5
20260505100123 55 186 3.0 0.0 0.00 0.00 0.00 77 1011.2
20260505093126 56 221 1.0 0.0 0.00 0.00 0.00 76 1011.1
20260505090137 57 229 3.0 0.0 0.00 0.00 0.00 75 1010.9
20260505083124 58 27 0.0 0.0 0.00 0.00 0.00 75 1010.6
20260505080136 58 28 1.0 0.0 0.00 0.00 0.00 72 1010.5
20260505073124 59 258 2.0 0.0 0.00 0.00 0.00 72 1010.0
20260505070138 60 211 3.0 0.0 0.00 0.00 0.00 69 1009.9
20260505063120 62 215 3.0 0.0 0.00 0.00 0.00 66 1009.4
20260505060127 64 285 0.0 0.0 0.00 0.00 0.00 63 1009.1
20260505053132 66 304 2.0 0.0 0.00 0.00 0.00 61 1009.0
20260505050117 67 282 4.0 0.0 0.00 0.00 0.00 59 1008.7
20260505040115 69 205 3.0 0.0 0.00 0.00 0.00 63 1007.7
20260505033151 69 202 4.0 0.0 0.00 0.00 0.00 61 1007.3
20260505030116 71 205 5.0 0.0 0.00 0.00 0.00 59 1006.9
20260505023116 72 184 4.0 0.0 0.00 0.00 0.00 55 1006.8
20260505020133 73 258 5.0 0.0 0.00 0.00 0.00 53 1007.0
20260505013118 74 195 4.0 0.0 0.00 0.00 0.00 52 1007.3
20260505010137 74 206 4.0 0.0 0.00 0.00 0.00 52 1007.3
20260505003113 74 188 4.0 0.0 0.00 0.00 0.00 50 1007.4
20260505000149 74 200 4.0 0.0 0.00 0.00 0.00 50 1007.6
20260504233115 74 254 3.0 0.0 0.00 0.00 0.00 48 1007.7
20260504230119 73 167 4.0 0.0 0.00 0.00 0.00 48 1007.9
20260504223113 72 90 4.0 0.0 0.00 0.00 0.00 51 1008.3
20260504220124 71 207 4.0 0.0 0.00 0.00 0.00 52 1008.7
20260504213111 70 184 3.0 0.0 0.00 0.00 0.00 53 1008.9
20260504210124 68 207 5.0 0.0 0.00 0.00 0.00 56 1009.4
20260504203129 67 226 4.0 0.0 0.00 0.00 0.00 58 1009.8
20260504200123 65 202 5.0 0.0 0.00 0.00 0.00 60 1010.0
20260504193130 66 232 3.0 0.0 0.00 0.00 0.00 60 1010.2
20260504190113 62 238 4.0 0.0 0.00 0.00 0.00 66 1010.5
20260504183140 61 226 4.0 0.0 0.00 0.00 0.00 68 1010.4
20260504180122 60 281 3.0 0.0 0.00 0.00 0.00 70 1010.5
20260504173125 59 197 4.0 0.0 0.00 0.00 0.00 72 1010.5
20260504170132 58 256 4.0 0.0 0.00 0.00 0.00 75 1010.4
20260504160125 57 192 4.0 0.0 0.00 0.00 0.00 77 1010.5